Location: Fredericksburg
(30.2750°N, 98.8720°W)
Time: 16:43:17
(UTC-05:00)

Daily predictions for brighter satellites

Satellite Brightness Start Highest point End
(mag) Time Altitude Azimuth Time Altitude Azimuth Time Altitude Azimuth
Atlas Centaur 2 3.5 20:19:30 10° SSW 20:25:14 32° SSE 20:31:59 10° E
Cosmos 2360 4.4 20:27:22 10° S 20:32:50 50° ESE 20:38:20 10° NNE
Molniya-1 3.2 20:31:39 10° S 20:33:00 23° ESE 20:34:24 10° ENE
FALCON 9 R/B 1.0 20:31:20 10° W 20:35:07 60° NNW 20:37:20 10° ENE
Cosmos 1242 Rocket 3.0 20:33:17 10° SSW 20:36:57 68° W 20:40:36 10° N
HJ-1C 3.6 20:33:40 10° SSE 20:37:01 52° ENE 20:40:22 10° N
Meteor 1-27 4.3 20:41:33 10° S 20:47:12 86° W 20:52:48 10° N
Cosmos 1455 2.4 20:45:25 10° SSE 20:49:04 48° E 20:52:44 10° NNE
Cosmos 1869 4.2 20:49:48 10° SSE 20:53:07 26° E 20:56:26 10° NNE
In-Cosmos 22 Rocket 4.3 20:47:57 10° N 20:53:15 76° W 20:58:32 10° S
CENTAUR R/B 4.2 20:50:25 10° WSW 20:55:47 35° NW 21:01:45 10° NNE
SJ-6B 3.7 20:52:56 10° S 20:56:42 51° W 21:00:34 10° NNW
Cosmos 1697 Rocket 4.4 20:55:25 10° SW 21:00:38 38° WNW 21:05:51 10° N
OTV 4 1.0 20:58:45 10° NW 21:01:31 44° NNE 21:03:10 20° E
CZ-3B DEB 1.2 20:58:14 10° NNW 21:02:00 41° NE 21:03:10 23° E
Cosmos 1400 Rocket 2.6 21:01:50 10° N 21:05:43 76° E 21:09:39 10° SSE
ALOS 3.3 21:03:16 10° S 21:07:45 47° W 21:12:15 10° NNW
Cosmos 1892 2.6 21:07:57 10° N 21:11:45 86° E 21:15:33 10° S
USA 186 1.6 21:11:06 32° ESE 21:11:50 43° ENE 21:14:27 10° N
H-2A R/B 3.3 21:09:33 10° S 21:13:25 60° W 21:17:16 10° NNW
Cosmos 2297 Rocket 3.5 21:09:16 10° NW 21:14:28 39° WSW 21:19:39 10° S
BREEZE-M DEB (TANK) 3.5 21:12:07 10° WNW 21:14:52 54° SW 21:19:51 15° SSE
DELTA 2 R/B (1) 4.1 21:09:32 10° NW 21:15:02 53° NNE 21:18:45 20° E
Nadezhda 4 Rocket 4.1 21:11:23 10° N 21:17:40 86° W 21:23:58 10° S
Cosmos 1315 Rocket 3.0 21:14:12 10° N 21:18:10 52° E 21:20:23 23° SSE
Cosmos 1634 Rocket 4.0 21:12:01 10° S 21:18:14 69° E 21:24:29 10° NNE
Cosmos 2322 Rocket 2.2 21:15:46 10° S 21:21:13 57° ESE 21:26:42 10° NNE
Cosmos 1707 Rocket 3.7 21:16:53 10° S 21:21:19 77° W 21:25:46 10° N
Cosmos 2263 Rocket 4.0 21:20:44 10° NNE 21:23:25 13° ENE 21:24:22 13° ENE
GPS 2-17 Rocket1 4.4 21:20:31 10° SW 21:23:50 21° S 21:24:44 20° SSE
Meteor 2-3 Rocket 4.3 21:18:53 10° NNW 21:24:31 62° W 21:30:11 10° S
Spot 2 Rocket 3.8 21:20:23 10° S 21:25:27 70° WSW 21:30:32 10° NNW
Cosmos 1092 Rocket 4.0 21:20:07 10° N 21:26:28 78° E 21:32:48 10° S
CZ-2D R/B 4.0 21:28:07 10° S 21:31:55 54° W 21:35:44 10° NNW
Cosmos 2360 Rocket 3.6 21:34:16 20° ENE 21:34:16 20° ENE 21:36:51 10° NE
Cosmos 1980 Rocket 4.0 21:28:05 10° SW 21:33:10 34° WNW 21:38:19 10° N
Cosmos 1862 Rocket 4.1 21:34:03 36° E 21:34:19 36° E 21:38:25 10° NNE
Cosmos 1733 Rocket 4.2 21:31:01 10° NNE 21:34:28 26° ENE 21:34:28 26° ENE
Resurs 1-3 4.4 21:30:49 10° S 21:35:03 50° W 21:39:20 10° NNW
Intercosmos 25 Rocket 2.7 21:36:12 61° ESE 21:36:24 63° E 21:39:41 10° NNE
Meteor 1-29 2.9 21:33:45 10° N 21:37:13 85° WNW 21:39:40 18° SSW
Helios 1B rocket 2.7 21:33:46 10° N 21:37:51 68° WNW 21:41:54 10° SSW
Lacrosse 4 Rocket 3.1 21:36:31 10° N 21:39:39 21° ENE 21:39:39 21° ENE
SL-8 R/B 3.6 21:35:28 10° NW 21:40:17 83° SW 21:41:56 41° SE
GENESIS II 4.1 21:36:40 10° SSW 21:40:40 69° ESE 21:44:42 10° NNE
Meteor 2-20 Rocket 4.5 21:35:18 10° N 21:41:20 60° E 21:44:22 30° SSE
Cosmos 1825 2.7 21:40:10 10° N 21:43:21 42° ENE 21:43:21 42° ENE
Cosmos 1869 Rocket 4.4 21:40:40 10° NNW 21:45:00 51° W 21:48:55 12° SSW
Envisat 2.9 21:42:59 33° SSE 21:45:19 74° ENE 21:50:23 10° N
Cosmos 1939 Rocket 2.9 21:45:36 56° ESE 21:46:01 60° ENE 21:50:00 10° N
Hubble Space Telescope 3.2 21:45:51 10° SW 21:47:20 12° SSW 21:47:53 11° SSW
CZ-4B DEB 3.2 21:48:16 51° N 21:48:16 51° N 21:50:39 10° N
Cosmos 2242 Rocket 3.6 21:43:53 13° S 21:47:59 83° W 21:52:31 10° N
SL-16 R/B 2.2 21:42:30 10° SSW 21:48:09 82° WNW 21:53:50 10° NNE
Cosmos 1900 4.4 21:43:17 10° NNW 21:48:24 79° WSW 21:50:28 37° SSE
SJ-11-01 4.1 21:49:40 47° SSE 21:50:56 74° ENE 21:55:35 10° N
Centaur AC-42 3.5 21:29:27 10° W 21:54:44 46° SSW 21:57:14 33° SSE
GPS 2-04 Rocket1 3.7 21:55:48 10° W 21:58:46 34° SW 21:58:46 34° SW
Cosmos 1627 Rocket 4.4 21:53:36 10° N 21:59:48 86° W 22:03:09 29° S
Cosmos 2279 Rocket 3.9 21:54:46 12° S 22:00:37 89° E 22:06:53 10° N
Resurs 01 Rocket 4.1 22:00:46 10° SW 22:03:57 19° W 22:07:10 10° NW
Helios 1A 3.9 22:03:27 30° SSW 22:05:03 45° W 22:09:08 10° NNW
ATLAS 5 CENTAUR R/B 4.1 22:01:14 10° N 22:05:20 18° NE 22:05:54 18° ENE
OAO 3 Rocket 3.9 22:00:56 10° W 22:05:42 49° N 22:07:07 37° NE
CCE 1 Rocket 4.0 21:59:12 10° W 22:07:02 70° SSW 22:07:45 62° SE
SEDSat Delta rocket 3.6 22:01:32 10° WSW 22:07:03 88° S 22:08:31 54° E
USA 234 3.2 22:07:21 47° ESE 22:09:16 70° NE 22:15:48 10° NW
ARGOS 4.4 22:11:51 27° NE 22:11:51 27° NE 22:15:20 10° NNE
Atlas Centaur 2 2.8 22:07:07 10° WSW 22:14:24 71° SSE 22:16:54 47° E
ERS-1 Rocket 3.0 22:22:11 73° NNE 22:22:11 73° NNE 22:26:48 10° N
Cosmos 1428 Rocket 4.3 22:18:43 10° N 22:24:50 89° W 22:25:44 67° S
ATLAS CENTAUR R/B 4.4 22:21:18 10° WNW 22:25:03 28° SW 22:28:14 22° S
Cosmos 1408 4.2 22:21:54 10° NNW 22:24:35 34° WNW 22:24:35 34° WNW
SeaSat 1 3.7 22:39:58 32° NNE 22:39:58 32° NNE 22:43:00 10° N
USA 229 DEB 3.6 22:51:56 79° N 22:51:56 79° N 22:58:24 10° NNE
USA 229 3.6 22:52:13 75° NNE 22:52:13 75° NNE 22:58:30 10° NNE
Milstar 3 2.9 22:44:47 10° W 22:50:57 58° SW 22:50:57 58° SW
Skynet4D Del rocket 4.5 22:48:07 10° W 22:55:00 62° SW 22:55:00 62° SW
H-2A R/B 3.8 23:04:41 24° N 23:04:41 24° N 23:06:40 10° N
Terra 4.4 23:05:46 13° NNE 23:05:46 13° NNE 23:06:16 10° NNE
Cosmos 2263 Rocket 3.1 23:02:15 10° NNW 23:06:05 44° NW 23:06:05 44° NW
Cosmos 2360 Rocket 3.5 23:15:52 35° WNW 23:16:10 35° WNW 23:21:19 10° N
Lacrosse 4 Rocket 4.2 23:14:47 10° NW 23:16:01 17° WNW 23:16:01 17° WNW
ATLAS 5 CENTAUR R/B 3.9 23:44:17 10° NNW 23:47:28 33° NW 23:47:28 33° NW
